Time,TemperatureF,DewpointF,PressureIn,WindDirection,WindDirectionDegrees,WindSpeedMPH,WindSpeedGustMPH,Humidity,HourlyPrecipIn,Conditions,Clouds,dailyrainin,SoftwareType,DateUTC
2013-08-29 00:06:00,63.9,62.4,29.95,South,180,0.0,-999.0,95,-99.99,,,0.00,Acu-Link.com,2013-08-29 04:06:00,
2013-08-29 00:21:00,63.5,62.0,29.95,South,180,0.0,-999.0,95,-99.99,,,0.00,Acu-Link.com,2013-08-29 04:21:00,
2013-08-29 00:36:00,63.3,61.8,29.95,South,180,0.0,-999.0,95,-99.99,,,0.00,Acu-Link.com,2013-08-29 04:36:00,
2013-08-29 00:51:00,63.1,61.3,29.95,North,0,0.0,-999.0,94,-99.99,,,0.00,Acu-Link.com,2013-08-29 04:51:00,
2013-08-29 01:06:00,63.1,61.3,29.96,South,180,0.0,-999.0,94,-99.99,,,0.00,Acu-Link.com,2013-08-29 05:06:00,
2013-08-29 01:21:00,63.0,61.2,29.96,South,180,0.0,-999.0,94,-99.99,,,0.00,Acu-Link.com,2013-08-29 05:21:00,
2013-08-29 01:37:00,62.8,61.3,29.96,South,180,0.0,-999.0,95,-99.99,,,0.00,Acu-Link.com,2013-08-29 05:37:00,
2013-08-29 01:52:00,62.4,60.9,29.96,SSW,202,0.0,-999.0,95,-99.99,,,0.00,Acu-Link.com,2013-08-29 05:52:00,
2013-08-29 02:07:00,62.4,61.2,29.95,South,180,0.0,-999.0,96,-99.99,,,0.00,Acu-Link.com,2013-08-29 06:07:00,
2013-08-29 02:22:00,62.4,61.2,29.96,South,180,0.0,-999.0,96,-99.99,,,0.00,Acu-Link.com,2013-08-29 06:22:00,
2013-08-29 02:37:00,61.9,60.5,29.96,South,180,0.0,-999.0,95,-99.99,,,0.00,Acu-Link.com,2013-08-29 06:37:00,
2013-08-29 02:52:00,61.7,60.3,29.96,North,0,0.0,-999.0,95,-99.99,,,0.00,Acu-Link.com,2013-08-29 06:52:00,
2013-08-29 03:07:00,62.1,60.9,29.96,West,270,0.0,-999.0,96,-99.99,,,0.00,Acu-Link.com,2013-08-29 07:07:00,
2013-08-29 03:22:00,62.2,61.0,29.96,South,180,0.0,-999.0,96,-99.99,,,0.00,Acu-Link.com,2013-08-29 07:22:00,
2013-08-29 03:37:00,62.6,61.7,29.96,West,270,0.0,-999.0,97,-99.99,,,0.00,Acu-Link.com,2013-08-29 07:37:00,
2013-08-29 03:53:00,62.8,61.9,29.95,WNW,292,0.0,-999.0,97,-99.99,,,0.00,Acu-Link.com,2013-08-29 07:53:00,
2013-08-29 04:08:00,62.8,61.9,29.96,West,270,0.0,-999.0,97,-99.99,,,0.00,Acu-Link.com,2013-08-29 08:08:00,
2013-08-29 04:23:00,62.8,61.9,29.96,SW,225,0.0,-999.0,97,-99.99,,,0.00,Acu-Link.com,2013-08-29 08:23:00,
2013-08-29 04:38:00,62.8,61.9,29.96,South,180,0.0,-999.0,97,-99.99,,,0.00,Acu-Link.com,2013-08-29 08:38:00,
2013-08-29 04:53:00,62.8,61.9,29.96,West,270,0.0,-999.0,97,-99.99,,,0.00,Acu-Link.com,2013-08-29 08:53:00,
2013-08-29 05:08:00,62.8,61.9,29.96,South,180,0.0,-999.0,97,-99.99,,,0.00,Acu-Link.com,2013-08-29 09:08:00,
2013-08-29 05:23:00,62.1,61.2,29.96,South,180,0.0,-999.0,97,-99.99,,,0.00,Acu-Link.com,2013-08-29 09:23:00,
2013-08-29 05:38:00,61.7,60.8,29.97,West,270,0.0,-999.0,97,-99.99,,,0.00,Acu-Link.com,2013-08-29 09:38:00,
2013-08-29 05:53:00,61.3,60.4,29.97,West,270,0.0,-999.0,97,-99.99,,,0.00,Acu-Link.com,2013-08-29 09:53:00,
2013-08-29 06:09:00,62.1,61.5,29.98,West,270,0.0,-999.0,98,-99.99,,,0.00,Acu-Link.com,2013-08-29 10:09:00,
2013-08-29 06:24:00,62.4,61.8,29.98,WNW,292,2.7,-999.0,98,-99.99,,,0.00,Acu-Link.com,2013-08-29 10:24:00,
2013-08-29 06:39:00,62.8,62.2,29.98,NW,315,1.7,-999.0,98,-99.99,,,0.00,Acu-Link.com,2013-08-29 10:39:00,
2013-08-29 06:54:00,62.8,62.2,29.99,West,270,0.0,-999.0,98,-99.99,,,0.00,Acu-Link.com,2013-08-29 10:54:00,
2013-08-29 07:09:00,62.8,62.2,30.00,SSW,202,0.0,-999.0,98,-99.99,,,0.00,Acu-Link.com,2013-08-29 11:09:00,
2013-08-29 07:25:00,62.6,62.0,30.00,West,270,0.0,-999.0,98,-99.99,,,0.00,Acu-Link.com,2013-08-29 11:25:00,
2013-08-29 07:40:00,63.1,62.5,30.01,South,180,0.0,-999.0,98,-99.99,,,0.00,Acu-Link.com,2013-08-29 11:40:00,
2013-08-29 07:55:00,63.0,62.4,30.01,East,90,1.7,-999.0,98,-99.99,,,0.00,Acu-Link.com,2013-08-29 11:55:00,
2013-08-29 08:10:00,64.0,63.4,30.01,WNW,292,3.2,-999.0,98,-99.99,,,0.00,Acu-Link.com,2013-08-29 12:10:00,
2013-08-29 08:25:00,64.8,64.2,30.01,NW,315,2.7,-999.0,98,-99.99,,,0.00,Acu-Link.com,2013-08-29 12:25:00,
2013-08-29 08:41:00,65.8,65.2,30.02,East,90,2.2,-999.0,98,-99.99,,,0.00,Acu-Link.com,2013-08-29 12:41:00,
2013-08-29 08:56:00,66.9,66.0,30.01,North,0,2.7,-999.0,97,-99.99,,,0.00,Acu-Link.com,2013-08-29 12:56:00,
2013-08-29 09:11:00,68.0,67.1,30.02,North,0,2.7,-999.0,97,-99.99,,,0.00,Acu-Link.com,2013-08-29 13:11:00,
2013-08-29 09:26:00,68.2,66.7,30.01,NNE,22,2.7,-999.0,95,-99.99,,,0.00,Acu-Link.com,2013-08-29 13:26:00,
2013-08-29 09:41:00,68.9,67.1,30.01,SE,135,0.0,-999.0,94,-99.99,,,0.00,Acu-Link.com,2013-08-29 13:41:00,
2013-08-29 09:56:00,70.5,67.4,30.01,West,270,0.0,-999.0,90,-99.99,,,0.00,Acu-Link.com,2013-08-29 13:56:00,
2013-08-29 10:12:00,72.5,69.1,30.01,ENE,67,0.0,-999.0,89,-99.99,,,0.00,Acu-Link.com,2013-08-29 14:12:00,
2013-08-29 10:27:00,73.8,69.3,30.01,East,90,1.7,-999.0,86,-99.99,,,0.00,Acu-Link.com,2013-08-29 14:27:00,
2013-08-29 10:42:00,75.9,70.7,30.01,ENE,67,3.2,-999.0,84,-99.99,,,0.00,Acu-Link.com,2013-08-29 14:42:00,
2013-08-29 10:57:00,76.6,70.7,30.01,East,90,3.7,-999.0,82,-99.99,,,0.00,Acu-Link.com,2013-08-29 14:57:00,
2013-08-29 11:12:00,77.7,71.0,30.02,ENE,67,3.7,-999.0,80,-99.99,,,0.00,Acu-Link.com,2013-08-29 15:12:00,
2013-08-29 11:27:00,78.8,71.0,30.01,ESE,112,2.2,-999.0,77,-99.99,,,0.00,Acu-Link.com,2013-08-29 15:27:00,
2013-08-29 11:43:00,81.0,71.5,30.00,SE,135,2.7,-999.0,73,-99.99,,,0.00,Acu-Link.com,2013-08-29 15:43:00,
2013-08-29 11:58:00,81.1,72.0,30.00,NNE,22,3.2,-999.0,74,-99.99,,,0.00,Acu-Link.com,2013-08-29 15:58:00,
2013-08-29 12:13:00,81.5,72.0,30.00,NE,45,4.2,-999.0,73,-99.99,,,0.00,Acu-Link.com,2013-08-29 16:13:00,
2013-08-29 12:28:00,82.9,71.7,30.00,ESE,112,4.2,-999.0,69,-99.99,,,0.00,Acu-Link.com,2013-08-29 16:28:00,
2013-08-29 12:43:00,82.8,71.1,29.99,NNE,22,1.1,-999.0,68,-99.99,,,0.00,Acu-Link.com,2013-08-29 16:43:00,
2013-08-29 12:58:00,83.1,71.0,29.98,ENE,67,1.7,-999.0,67,-99.99,,,0.00,Acu-Link.com,2013-08-29 16:58:00,
2013-08-29 13:13:00,84.0,70.9,29.99,ESE,112,2.2,-999.0,65,-99.99,,,0.00,Acu-Link.com,2013-08-29 17:13:00,
2013-08-29 13:28:00,85.6,72.0,29.98,ESE,112,1.7,-999.0,64,-99.99,,,0.00,Acu-Link.com,2013-08-29 17:28:00,
2013-08-29 13:43:00,84.2,71.6,29.98,NNE,22,3.7,-999.0,66,-99.99,,,0.00,Acu-Link.com,2013-08-29 17:43:00,
2013-08-29 13:58:00,84.7,71.6,29.97,NE,45,3.7,-999.0,65,-99.99,,,0.00,Acu-Link.com,2013-08-29 17:58:00,
2013-08-29 14:14:00,86.2,74.4,29.97,NNE,22,4.7,-999.0,68,-99.99,,,0.00,Acu-Link.com,2013-08-29 18:14:00,
2013-08-29 14:29:00,86.2,71.6,29.97,NNE,22,3.2,-999.0,62,-99.99,,,0.00,Acu-Link.com,2013-08-29 18:29:00,
2013-08-29 14:44:00,86.2,71.6,29.96,NE,45,1.7,-999.0,62,-99.99,,,0.00,Acu-Link.com,2013-08-29 18:44:00,
2013-08-29 14:59:00,83.1,70.5,29.96,NNE,22,2.2,-999.0,66,-99.99,,,0.00,Acu-Link.com,2013-08-29 18:59:00,
2013-08-29 15:14:00,86.2,70.2,29.96,SE,135,1.7,-999.0,59,-99.99,,,0.00,Acu-Link.com,2013-08-29 19:14:00,
2013-08-29 15:29:00,87.6,71.5,29.95,South,180,1.1,-999.0,59,-99.99,,,0.00,Acu-Link.com,2013-08-29 19:29:00,
2013-08-29 15:44:00,87.4,71.8,29.95,NNE,22,2.2,-999.0,60,-99.99,,,0.00,Acu-Link.com,2013-08-29 19:44:00,
2013-08-29 15:59:00,86.5,69.4,29.95,NE,45,2.7,-999.0,57,-99.99,,,0.00,Acu-Link.com,2013-08-29 19:59:00,
2013-08-29 16:15:00,86.7,69.1,29.94,NE,45,2.7,-999.0,56,-99.99,,,0.00,Acu-Link.com,2013-08-29 20:15:00,
2013-08-29 16:30:00,87.4,71.8,29.94,NE,45,4.2,-999.0,60,-99.99,,,0.00,Acu-Link.com,2013-08-29 20:30:00,
2013-08-29 16:45:00,86.9,70.8,29.93,NNE,22,2.2,-999.0,59,-99.99,,,0.00,Acu-Link.com,2013-08-29 20:45:00,
2013-08-29 17:01:00,89.1,69.7,29.93,NE,45,2.2,-999.0,53,-99.99,,,0.00,Acu-Link.com,2013-08-29 21:01:00,
2013-08-29 17:16:00,86.7,69.6,29.93,East,90,1.1,-999.0,57,-99.99,,,0.00,Acu-Link.com,2013-08-29 21:16:00,
2013-08-29 17:31:00,86.5,69.4,29.93,NNE,22,3.7,-999.0,57,-99.99,,,0.00,Acu-Link.com,2013-08-29 21:31:00,
2013-08-29 17:46:00,86.9,68.8,29.93,NNE,22,2.2,-999.0,55,-99.99,,,0.00,Acu-Link.com,2013-08-29 21:46:00,
2013-08-29 18:01:00,86.5,69.9,29.92,NNE,22,2.7,-999.0,58,-99.99,,,0.00,Acu-Link.com,2013-08-29 22:01:00,
2013-08-29 18:16:00,91.9,70.6,29.92,ENE,67,2.7,-999.0,50,-99.99,,,0.00,Acu-Link.com,2013-08-29 22:16:00,
2013-08-29 18:31:00,91.0,71.5,29.91,NE,45,2.7,-999.0,53,-99.99,,,0.00,Acu-Link.com,2013-08-29 22:31:00,
2013-08-29 18:46:00,88.3,70.6,29.92,ESE,112,0.0,-999.0,56,-99.99,,,0.00,Acu-Link.com,2013-08-29 22:46:00,
2013-08-29 19:02:00,87.6,69.9,29.92,NNE,22,0.0,-999.0,56,-99.99,,,0.00,Acu-Link.com,2013-08-29 23:02:00,
2013-08-29 19:17:00,86.4,70.8,29.91,ESE,112,0.0,-999.0,60,-99.99,,,0.00,Acu-Link.com,2013-08-29 23:17:00,
2013-08-29 19:32:00,83.1,71.9,29.92,NNE,22,0.0,-999.0,69,-99.99,,,0.00,Acu-Link.com,2013-08-29 23:32:00,
2013-08-29 19:47:00,82.0,71.6,29.93,South,180,0.0,-999.0,71,-99.99,,,0.00,Acu-Link.com,2013-08-29 23:47:00,
2013-08-29 20:02:00,79.5,71.3,29.93,South,180,0.0,-999.0,76,-99.99,,,0.00,Acu-Link.com,2013-08-30 00:02:00,
2013-08-29 20:17:00,77.4,70.4,29.94,South,180,0.0,-999.0,79,-99.99,,,0.00,Acu-Link.com,2013-08-30 00:17:00,
2013-08-29 20:32:00,75.6,69.3,29.94,South,180,0.0,-999.0,81,-99.99,,,0.00,Acu-Link.com,2013-08-30 00:32:00,
2013-08-29 20:48:00,73.6,68.8,29.94,South,180,0.0,-999.0,85,-99.99,,,0.00,Acu-Link.com,2013-08-30 00:48:00,
2013-08-29 21:03:00,72.1,68.3,29.95,South,180,0.0,-999.0,88,-99.99,,,0.00,Acu-Link.com,2013-08-30 01:03:00,
2013-08-29 21:18:00,71.4,67.7,29.94,SE,135,0.0,-999.0,88,-99.99,,,0.00,Acu-Link.com,2013-08-30 01:18:00,
2013-08-29 21:33:00,70.9,67.8,29.95,SSE,157,0.0,-999.0,90,-99.99,,,0.00,Acu-Link.com,2013-08-30 01:33:00,
2013-08-29 21:48:00,70.3,67.2,29.95,NE,45,0.0,-999.0,90,-99.99,,,0.00,Acu-Link.com,2013-08-30 01:48:00,
2013-08-29 22:03:00,69.8,67.4,29.94,East,90,0.0,-999.0,92,-99.99,,,0.00,Acu-Link.com,2013-08-30 02:03:00,
2013-08-29 22:18:00,69.6,67.5,29.93,SE,135,0.0,-999.0,93,-99.99,,,0.00,Acu-Link.com,2013-08-30 02:18:00,
2013-08-29 22:33:00,69.4,67.3,29.93,NNE,22,0.0,-999.0,93,-99.99,,,0.00,Acu-Link.com,2013-08-30 02:33:00,
2013-08-29 22:49:00,69.1,66.7,29.93,South,180,0.0,-999.0,92,-99.99,,,0.00,Acu-Link.com,2013-08-30 02:49:00,
2013-08-29 23:04:00,68.9,66.5,29.92,ENE,67,0.0,-999.0,92,-99.99,,,0.00,Acu-Link.com,2013-08-30 03:04:00,
2013-08-29 23:19:00,68.5,66.4,29.92,South,180,0.0,-999.0,93,-99.99,,,0.00,Acu-Link.com,2013-08-30 03:19:00,
2013-08-29 23:34:00,68.2,66.1,29.91,South,180,0.0,-999.0,93,-99.99,,,0.00,Acu-Link.com,2013-08-30 03:34:00,
2013-08-29 23:49:00,68.2,66.4,29.91,SSE,157,0.0,-999.0,94,-99.99,,,0.00,Acu-Link.com,2013-08-30 03:49:00,